STARLINK-31997, 60288

Orbit data source: Space-Track

STARLINK-31997, 60288 is a payload satellite owned by SpaceX/Seattle (US) in LEO that was launched on Sun, 28 Jul 2024 UTC via an FALCON 9 launch vehicle from the Air Force Eastern Test Range (AFETR). Payload-class satellites include a variety of spacecraft equipped with specific instruments for various scientific and technological missions. These include communications satellites like Starlink; space stations such as the ISS; scientific satellites like the Hubble; Earth observation satellites from companies like Planet Labs, Umbra, and HawkEye 360; GPS; miniature CubeSats for education and research; and military/defense satellites.

Loading next visibility...
Identifier
60288, 2024-132L
Orbit
LEO
Country
Flag of USUS
Related business
Manufacturer
SpaceX/Seattle
Mission
Operational Commercial Communications
Bus & Motor
STARLINK V2M, Unknown motor
Mass
730 kg wet, ~700 kg dry
Launch date (UTC)
2024-07-28 (2 years ago)
Launch vehicle
FALCON 9
Launch site
Air Force Eastern Test Range (AFETR)
Object type
Payload
Rocket body
Debris
Shape & HBR
Box + 2 Pan, 17.7 m
Radar Cross Section
33.884 m², Large (>1 m²)

Expand to show TLE details & history
Last TLE update: 10 hours ago

TLE from 10 hours ago
0 STARLINK-31997
1 60288U 24132L   26062.08384864  .00000278  00000-0  21515-4 0  9998
2 60288  53.1601  82.7814 0001188  84.1956 275.9180 15.30197490 90553
Epoch: 2026-03-03T02:00Z
TLE epoch observation values (Epoch: 2026-03-03T02:00:44.522Z)
Latitude
-0.00004°
Longitude
-108.27213°
Altitude
476.038 km
Speed
7.629 km/s
True Right ascension
05h 31m 07s
True Declination
0° 00' 00"
Sunlit
Object was in daylight at epoch
Visualization orbit readout
Latitude
Unknown
Longitude
Unknown
Altitude
Unknown
Speed
Unknown
Apparent Right ascension
Unknown
Apparent Declination
Unknown
Sunlit
N/A
Visualization observer readout
Local Sidereal Time
15:43:28
Azimuth
Unknown
Elevation
Unknown
Doppler factor
Unknown
Orbital elements
Apogee altitude
476.293 km
Perigee altitude
474.665 km
Semi-major axis
6,853.616 km
Eccentricity
0.00012
Inclination
53.1601°
RAAN
82.7814°
Arg. of periapsis
84.1956°
True anomaly
275.90446°
Mean anomaly
275.918°
Eccentric anomaly
275.91123°
Mean motion
3.82528 °/min
Orbital period
94.11 mins
BSTAR
0.000021515
Loading maneuver chart data...
Computing Atmospheric mass density...
Loading historical data...
Loading historical data...
Loading historical data...
Loading historical data...
Loading historical data...
Loading historical data...
Loading historical data...

Documentation

Showing up to 5 results
|